COSMOS 2251 DEB, 33779

Orbit data source: Space-Track

COSMOS 2251 DEB, 33779 is space debris in LEO originally from a launch on Wed, 16 Jun 1993 UTC launched from the Plesetsk Missile And Space Complex (PKMTR). The debris from Iridium 33, an American commercial communications satellite, has been tracked extensively since its accidental collision with the defunct Russian satellite Cosmos 2251 in 2009. This event, occurring at high speed in low Earth orbit (LEO), generated thousands of pieces of space debris, significantly increasing the risk of further collisions. The Iridium 33 debris cloud has impacted space traffic management and orbital debris mitigation strategies, making it a subject of ongoing study in space situational awareness.

Loading next visibility...
Identifier
33779, 1993-036U
Orbit
LEO
Country
Flag of CISCIS
Related business
Manufacturer
Unknown
Mission
Spacecraft
Bus & Motor
Unknown
Mass
Unknown
Launch date (UTC)
1993-06-16 (32 years ago)
Launch vehicle
Unknown
Launch site
Plesetsk Missile And Space Complex (PKMTR)
Object type
Payload
Rocket body
Debris
Shape & HBR
Unknown shape, 0.1 m
Radar Cross Section
Small (<0.1 m²)

Expand to show TLE details & history
Last TLE update: 7 hours ago

TLE from 7 hours ago
0 COSMOS 2251 DEB
1 33779U 93036U   25292.98030839  .00028176  00000-0  47755-2 0  9994
2 33779  74.0428 274.8629 0020110 318.9609 102.7403 14.69007075877383
Epoch: 2025-10-19T23:31Z
TLE epoch observation values (Epoch: 2025-10-19T23:31:38.644Z)
Latitude
58.1402°
Longitude
-79.50393°
Altitude
676.847 km
Speed
7.522 km/s
True Right ascension
20h 08m 23s
True Declination
57° 59' 02"
Sunlit
Object was in daylight at epoch
Visualization orbit readout
Latitude
Unknown
Longitude
Unknown
Altitude
Unknown
Speed
Unknown
Apparent Right ascension
Unknown
Apparent Declination
Unknown
Sunlit
N/A
Visualization observer readout
Local Sidereal Time
01:01:11
Azimuth
Unknown
Elevation
Unknown
Doppler factor
Unknown
Orbital elements
Apogee altitude
675.984 km
Perigee altitude
647.669 km
Semi-major axis
7,039.964 km
Eccentricity
0.00201
Inclination
74.0428°
RAAN
274.8629°
Arg. of periapsis
318.9609°
True anomaly
102.96494°
Mean anomaly
102.7403°
Eccentric anomaly
102.85263°
Mean motion
3.67441 °/min
Orbital period
97.97 mins
BSTAR
0.0047755
Loading maneuver chart data...
Computing Atmospheric mass density...

Documentation

Showing up to 5 results
|